Regional Weather Roundup
Issued by NWS

Home | Current Version | Previous Version | Graphics & Text | Print | Product List | Glossary On
Versions: 1 2 3 4 5 6 7 8 9 10 11 12 13 14 15 16 17 18 19 20 21 22 23 24 25 26 27 28 29 30 31 32 33 34 35 36 37 38 39 40 41 42 43 44 45 46 47 48 49 50
000
ASUS45 KCYS 202310
RWRWY

WYOMING REGIONAL WEATHER ROUNDUP
NATIONAL WEATHER SERVICE CHEYENNE WY
500 PM MDT THU JUL 20 2017

NOTE:  "FAIR" INDICATES FEW OR NO CLOUDS BELOW 12,000 FEET
WITH NO SIGNIFICANT WEATHER AND/OR OBSTRUCTIONS TO VISIBILITY.

WYZ001-210000-
YELLOWSTONE NATIONAL PARK

CITY           SKY/WX    TMP DP  RH WIND       PRES   REMARKS
LK YELLOWSTONE   N/A     65  52  62 CALM      30.31F
W YELLOWSTONE  NOT AVBL

$$
WYZ002>013-054>058-071-098>099-210000-
NORTHERN WYOMING

CITY           SKY/WX    TMP DP  RH WIND       PRES   REMARKS
JACKSON        PTSUNNY   64  61  88 CALM      30.22S
CODY           LGT RAIN  66  57  72 S20       30.12F
GREYBULL       FAIR      84  49  29 NW25G43   29.97R
WORLAND        NOT AVBL
SHERIDAN       NOT AVBL
BUFFALO        NOT AVBL
GILLETTE       NOT AVBL
HULETT         FAIR      97  46  17 S16G23    29.93F HX  93
NEWCASTLE      FAIR      95  43  16 SE17G24   29.96F HX  91

$$
WYZ014>020-022>026-101>103-210000-
CENTRAL WYOMING

CITY           SKY/WX    TMP DP  RH WIND       PRES   REMARKS
BIG PINEY      FAIR      82  53  36 SW17      30.19F
PINEDALE       FAIR      73  50  43 N24G33    30.24R
DUBOIS         CLOUDY    59  52  77 W12       30.29R
LANDER         FAIR      89  46  22 W13       30.03S
RIVERTON       PTSUNNY   91  44  19 SW8       30.00F
CASPER         FAIR      94  43  17 S8        30.01F HX  90
DOUGLAS        FAIR      95  49  20 SE22G28   30.01F HX  92

$$
WYZ021-027>030-104>119-210000-
SOUTHERN WYOMING

CITY           SKY/WX    TMP DP  RH WIND       PRES   REMARKS
EVANSTON       FAIR      83  48  29 W18G25    30.22F
KEMMERER         N/A     82  41  23 SW17G25   30.23F
FORT BRIDGER   FAIR      91  40  17 W21G29    30.23F
ROCK SPRINGS   PTSUNNY   89  43  20 S14G22    30.17F
RAWLINS        FAIR      89  40  17 SW22      30.17F
SARATOGA       FAIR      86  45  23 W21       30.21F
LARAMIE        FAIR      81  52  36 VRB7      30.23F THUNDER
CHEYENNE       FAIR      78  51  38 SE14      30.15F
TORRINGTON     FAIR      90  58  33 E17G25    29.99F
PINE BLUFFS    FAIR      88  50  27 S3        30.09F

$$



USA.gov is the U.S. government's official web portal to all federal, state and local government web resources and services.